Regional Weather Roundup
Issued by NWS

Current Version | Previous Version | Text Only | Print | Product List | Glossary On
Versions: 1 2 3 4 5 6 7 8 9 10 11 12 13 14 15 16 17 18 19 20 21 22 23 24 25 26 27 28 29 30 31 32 33 34 35 36 37 38 39 40 41 42 43 44 45 46 47 48 49 50
000
ASUS44 KFWD 041403
RWRTX
NORTH TEXAS HOURLY WEATHER ROUNDUP
NATIONAL WEATHER SERVICE FORT WORTH TX
900 AM CDT WED MAY 04 2016

NOTE: "FAIR" INDICATES FEW OR NO CLOUDS BELOW 12,000 FEET WITH NO
SIGNIFICANT WEATHER AND/OR OBSTRUCTIONS TO VISIBILITY.

TXZ118-119-041500-
DALLAS/FORT WORTH METROPLEX

CITY           SKY/WX    TMP DP  RH WIND       PRES   REMARKS
DFW AIRPORT    SUNNY     65  54  67 W10       30.07S
DALLAS LOVE    SUNNY     64  55  72 W12G17    30.08S
FTW MEACHAM    SUNNY     63  56  78 W8        30.08S
DAL-EXECUTIVE  SUNNY     63  54  72 W12       30.08R
FTW-ALLIANCE   SUNNY     61  55  81 W12G20    30.08S
FTW-NAS-JRB    SUNNY     62  55  77 NW8       30.10R
FTW-SPINKS     SUNNY     61  55  82 W9        30.11R
ARLINGTON      SUNNY     65  55  70 W9        30.08F
GRAND PRAIRIE  SUNNY     63  54  72 W7        30.10S
MESQUITE       SUNNY     64  55  72 W7        30.08S
LANCASTER      SUNNY     63  53  71 W7        30.09S
$$

TXZ091>094-102>105-117-120-121-131>134-041500-
NORTH CENTRAL TEXAS

CITY           SKY/WX    TMP DP  RH WIND       PRES   REMARKS
SHRMAN/DENISON SUNNY     56  51  83 W7        30.07S
GAINESVILLE    SUNNY     62  53  72 NW10      30.09S
BRIDGEPORT     SUNNY     61  58  91 W5        30.12S
DECATUR        SUNNY     58  56  93 W7        30.09S
DENTON         SUNNY     61  56  83 W13       30.07S
MCKINNEY       SUNNY     63  54  72 NW16      30.06S
GREENVILLE     SUNNY     63  54  72 W10       30.06S
TERRELL        SUNNY     64  56  75 W10       30.07F
WAXAHACHIE     SUNNY     62  56  79 W8        30.10S
CLEBURNE       SUNNY     61  59  94 W9        30.12R
GRANBURY       SUNNY     61  57  87 NW5       30.12S
$$

TXZ083>090-098>101-113>116-127>130-139>142-154-155-041500-
WESTERN NORTH TEXAS

CITY           SKY/WX    TMP DP  RH WIND       PRES   REMARKS
WICHITA FALLS  SUNNY     59  51  75 NW12      30.10R
WF-KICKAPOO    SUNNY     60  51  73 W9        30.12S
VERNON         SUNNY     59  45  60 NW6       30.13
ABILENE        SUNNY     59  54  83 NW10      30.17R
ABILENE-DYESS  SUNNY     59  53  80 W10       30.15R
BRECKENRIDGE   SUNNY     61  57  86 W5        30.13S
MINERAL WELLS  SUNNY     59  55  87 W5        30.10R
STEPHENVILLE   SUNNY     62  53  73 W8        30.15R
COMANCHE       SUNNY     65  56  72 W8        30.13S
BROWNWOOD      SUNNY     57  57 100 NW5       30.15S
COLEMAN        SUNNY     61  56  83 W6        30.15S
$$

TXZ143>147-156>162-174-175-041500-
CENTRAL TEXAS

CITY           SKY/WX    TMP DP  RH WIND       PRES   REMARKS
WACO           SUNNY     63  53  70 CALM      30.10S
WACO-TSTC      SUNNY     63  54  72 NW5       30.11S
WACO-MCGREGOR  SUNNY     65  53  65 W8        30.11S
HILLSBORO      SUNNY     60  54  82 CALM      30.10S
CORSICANA      SUNNY     66  55  67 W6        30.10R
HEARNE         SUNNY     60  54  82 CALM      30.12S
TEMPLE         SUNNY     65  53  65 W9        30.11S
KILLEEN        SUNNY     66  51  58 W13       30.10S
KILLEEN-SKYLRK SUNNY     65  53  65 W7        30.11S
FORT HOOD      SUNNY     64  52  66 W9        30.09S
HAMILTON       SUNNY     66  55  68 W9        30.13S
LAMPASAS       SUNNY     67  56  65 W8        30.11S
$$

TXZ095>097-106>112-122>126-135>138-148>153-164>167-041500-
EAST TEXAS

CITY           SKY/WX    TMP DP  RH WIND       PRES   REMARKS
PARIS          SUNNY     63  50  63 W8        30.04S
MOUNT PLEASANT SUNNY     65  51  62 W7        30.06S
MINEOLA        SUNNY     64  55  72 W3        30.07S
TYLER          SUNNY     64  51  62 W6        30.06S
LONGVIEW       SUNNY     63  52  67 W7        30.05S
MARSHALL       SUNNY     65  52  62 W6        30.06S
ATHENS         SUNNY     63  52  67 CALM      30.07
PALESTINE      SUNNY     62  56  81 W5        30.10R
JACKSONVILLE   SUNNY     64  51  63 W5        30.09S
CENTER         FAIR      64  53  66 W7        30.05
NACOGDOCHES    SUNNY     63  55  77 NW3       30.06S
LUFKIN         SUNNY     63  54  72 W5        30.07R
$$

SUPPLEMENTAL OBSERVATIONS (CENTRAL)

CITY           SKY/WX    TMP DP  RH WIND       PRES   REMARKS
$$

SUPPLEMENTAL OBSERVATIONS (WEST)

CITY           SKY/WX    TMP DP  RH WIND       PRES   REMARKS
$$

SUPPLEMENTAL OBSERVATIONS (EAST)

CITY           SKY/WX    TMP DP  RH WIND       PRES   REMARKS
$$

SUPPLEMENTAL OBSERVATIONS ARE A COLLECTION OF AUTOMATED INSTRUMENTS
THAT ARE MAINTAINED BY A VARIETY OF FEDERAL AND STATE AGENCIES.
CERTAIN ELEMENTS...SUCH AS HUMIDITY VALUES AND SUSTAINED WIND
SPEEDS...MAY BE APPROXIMATED.





USA.gov is the U.S. government's official web portal to all federal, state and local government web resources and services.